Time,TemperatureF,DewpointF,PressureIn,WindDirection,WindDirectionDegrees,WindSpeedMPH,WindSpeedGustMPH,Humidity,HourlyPrecipIn,Conditions,Clouds,dailyrainin,SoftwareType,DateUTC
2013-04-29 00:01:00,56.9,51.5,29.86,SE,136,0.0,0.0,82,0.00,,,0.00,WeatherDisplay:10.37,2013-04-29 05:01:00,
2013-04-29 00:06:00,56.7,51.6,29.87,SSE,165,0.6,1.1,83,0.00,,,0.00,WeatherDisplay:10.37,2013-04-29 05:06:00,
2013-04-29 00:11:00,56.6,51.5,29.87,SE,130,0.2,1.1,83,0.00,,,0.00,WeatherDisplay:10.37,2013-04-29 05:11:00,
2013-04-29 00:16:00,56.4,51.3,29.86,SE,134,0.0,0.0,83,0.00,,,0.00,WeatherDisplay:10.37,2013-04-29 05:16:00,
2013-04-29 00:22:00,56.1,51.3,29.87,SE,125,0.0,0.0,84,0.00,,,0.00,WeatherDisplay:10.37,2013-04-29 05:22:00,
2013-04-29 00:27:00,55.9,51.5,29.87,SE,143,0.3,0.0,85,0.00,,,0.00,WeatherDisplay:10.37,2013-04-29 05:27:00,
2013-04-29 00:32:00,55.7,51.3,29.87,SE,143,0.0,1.1,85,0.00,,,0.00,WeatherDisplay:10.37,2013-04-29 05:32:00,
2013-04-29 00:37:00,55.5,51.1,29.87,SE,142,0.0,0.0,85,0.00,,,0.00,WeatherDisplay:10.37,2013-04-29 05:37:00,
2013-04-29 00:42:00,55.3,51.2,29.87,ESE,115,0.0,0.0,86,0.00,,,0.00,WeatherDisplay:10.37,2013-04-29 05:42:00,
2013-04-29 00:47:00,55.0,50.9,29.87,ESE,117,0.0,0.0,86,0.00,,,0.00,WeatherDisplay:10.37,2013-04-29 05:47:00,
2013-04-29 00:52:00,54.9,51.1,29.87,ESE,113,0.1,1.1,87,0.00,,,0.00,WeatherDisplay:10.37,2013-04-29 05:52:00,
2013-04-29 00:57:00,54.9,51.1,29.87,ESE,114,0.0,1.0,87,0.00,,,0.00,WeatherDisplay:10.37,2013-04-29 05:57:00,
2013-04-29 01:02:00,54.9,51.1,29.87,SE,135,0.1,1.1,87,0.00,,,0.00,WeatherDisplay:10.37,2013-04-29 06:02:00,
2013-04-29 01:07:00,54.8,51.0,29.87,SE,128,0.0,0.0,87,0.00,,,0.00,WeatherDisplay:10.37,2013-04-29 06:07:00,
2013-04-29 01:12:00,54.7,50.9,29.87,ESE,113,0.0,0.0,87,0.00,,,0.00,WeatherDisplay:10.37,2013-04-29 06:12:00,
2013-04-29 01:17:00,54.7,51.2,29.87,ESE,113,0.0,1.1,88,0.00,,,0.00,WeatherDisplay:10.37,2013-04-29 06:17:00,
2013-04-29 01:22:00,54.6,51.1,29.87,ESE,119,0.3,1.1,88,0.00,,,0.00,WeatherDisplay:10.37,2013-04-29 06:22:00,
2013-04-29 01:27:00,54.5,51.0,29.86,ESE,113,0.0,0.0,88,0.00,,,0.00,WeatherDisplay:10.37,2013-04-29 06:27:00,
2013-04-29 01:32:00,54.3,50.8,29.87,ESE,113,0.0,0.0,88,0.00,,,0.00,WeatherDisplay:10.37,2013-04-29 06:32:00,
2013-04-29 01:37:00,54.3,51.1,29.86,ESE,110,0.0,0.0,89,0.00,,,0.00,WeatherDisplay:10.37,2013-04-29 06:37:00,
2013-04-29 01:42:00,54.3,51.1,29.86,ESE,117,0.0,1.0,89,0.00,,,0.00,WeatherDisplay:10.37,2013-04-29 06:42:00,
2013-04-29 01:47:00,54.2,51.0,29.86,ESE,119,0.0,0.0,89,0.00,,,0.00,WeatherDisplay:10.37,2013-04-29 06:47:00,
2013-04-29 01:52:00,54.2,51.0,29.86,ESE,119,0.0,0.0,89,0.00,,,0.00,WeatherDisplay:10.37,2013-04-29 06:52:00,
2013-04-29 01:57:00,54.1,50.9,29.86,ESE,112,0.0,0.0,89,0.00,,,0.00,WeatherDisplay:10.37,2013-04-29 06:57:00,
2013-04-29 02:02:00,54.1,51.2,29.86,SSE,166,0.0,1.1,90,0.00,,,0.00,WeatherDisplay:10.37,2013-04-29 07:02:00,
2013-04-29 02:07:00,54.1,51.2,29.86,SE,132,0.1,1.1,90,0.00,,,0.00,WeatherDisplay:10.37,2013-04-29 07:07:00,
2013-04-29 02:12:00,54.1,51.2,29.86,ESE,110,0.2,1.1,90,0.00,,,0.00,WeatherDisplay:10.37,2013-04-29 07:12:00,
2013-04-29 02:17:00,54.1,51.2,29.86,ESE,123,0.2,1.1,90,0.00,,,0.00,WeatherDisplay:10.37,2013-04-29 07:17:00,
2013-04-29 02:22:00,54.0,51.1,29.85,ESE,102,0.7,1.1,90,0.00,,,0.00,WeatherDisplay:10.37,2013-04-29 07:22:00,
2013-04-29 02:27:00,53.9,51.0,29.85,ESE,123,0.0,0.0,90,0.00,,,0.00,WeatherDisplay:10.37,2013-04-29 07:27:00,
2013-04-29 02:32:00,53.8,51.2,29.85,SE,131,0.1,1.1,91,0.00,,,0.00,WeatherDisplay:10.37,2013-04-29 07:32:00,
2013-04-29 02:37:00,53.7,51.1,29.85,ESE,120,0.0,1.1,91,0.00,,,0.00,WeatherDisplay:10.37,2013-04-29 07:37:00,
2013-04-29 02:42:00,53.6,51.0,29.85,ESE,120,0.0,0.0,91,0.00,,,0.00,WeatherDisplay:10.37,2013-04-29 07:42:00,
2013-04-29 02:47:00,53.5,50.9,29.85,ESE,120,0.0,0.0,91,0.00,,,0.00,WeatherDisplay:10.37,2013-04-29 07:47:00,
2013-04-29 02:52:00,53.5,51.2,29.84,ESE,120,0.2,1.1,92,0.00,,,0.00,WeatherDisplay:10.37,2013-04-29 07:52:00,
2013-04-29 02:57:00,53.4,51.1,29.84,ESE,115,0.1,1.1,92,0.00,,,0.00,WeatherDisplay:10.37,2013-04-29 07:57:00,
2013-04-29 03:02:00,53.3,51.0,29.85,ESE,115,0.0,1.1,92,0.00,,,0.00,WeatherDisplay:10.37,2013-04-29 08:02:00,
2013-04-29 03:07:00,53.2,50.9,29.85,ESE,110,0.8,2.3,92,0.00,,,0.00,WeatherDisplay:10.37,2013-04-29 08:07:00,
2013-04-29 03:12:00,53.3,51.3,29.85,ESE,110,0.7,1.1,93,0.00,,,0.00,WeatherDisplay:10.37,2013-04-29 08:12:00,
2013-04-29 03:17:00,53.2,51.2,29.85,ESE,105,1.3,2.3,93,0.00,,,0.00,WeatherDisplay:10.37,2013-04-29 08:17:00,
2013-04-29 03:22:00,53.2,51.2,29.85,ESE,103,0.8,1.1,93,0.00,,,0.00,WeatherDisplay:10.37,2013-04-29 08:22:00,
2013-04-29 03:27:00,53.1,51.1,29.85,ESE,108,0.4,2.3,93,0.00,,,0.00,WeatherDisplay:10.37,2013-04-29 08:27:00,
2013-04-29 03:32:00,53.0,51.0,29.85,SE,124,0.0,1.1,93,0.00,,,0.00,WeatherDisplay:10.37,2013-04-29 08:32:00,
2013-04-29 03:37:00,52.9,50.9,29.85,ESE,115,0.3,1.1,93,0.00,,,0.00,WeatherDisplay:10.37,2013-04-29 08:37:00,
2013-04-29 03:42:00,52.7,50.7,29.85,ESE,115,0.1,0.0,93,0.00,,,0.00,WeatherDisplay:10.37,2013-04-29 08:42:00,
2013-04-29 03:47:00,52.6,50.6,29.85,ESE,117,0.0,0.0,93,0.00,,,0.00,WeatherDisplay:10.37,2013-04-29 08:47:00,
2013-04-29 03:52:00,52.4,50.4,29.85,ESE,117,0.0,0.0,93,0.00,,,0.00,WeatherDisplay:10.37,2013-04-29 08:52:00,
2013-04-29 03:57:00,52.2,50.5,29.85,East,96,0.0,1.1,94,0.00,,,0.00,WeatherDisplay:10.37,2013-04-29 08:57:00,
2013-04-29 04:02:00,52.1,50.4,29.85,East,96,0.0,0.0,94,0.00,,,0.00,WeatherDisplay:10.37,2013-04-29 09:02:00,
2013-04-29 04:07:00,52.0,50.3,29.86,East,96,0.0,0.0,94,0.00,,,0.00,WeatherDisplay:10.37,2013-04-29 09:07:00,
2013-04-29 04:12:00,51.7,50.0,29.86,East,96,0.0,0.0,94,0.00,,,0.00,WeatherDisplay:10.37,2013-04-29 09:12:00,
2013-04-29 04:17:00,51.5,49.8,29.86,East,96,0.0,0.0,94,0.00,,,0.00,WeatherDisplay:10.37,2013-04-29 09:17:00,
2013-04-29 04:22:00,51.2,49.5,29.86,East,96,0.0,0.0,94,0.00,,,0.00,WeatherDisplay:10.37,2013-04-29 09:22:00,
2013-04-29 04:27:00,51.2,49.8,29.86,East,96,0.0,0.0,95,0.00,,,0.00,WeatherDisplay:10.37,2013-04-29 09:27:00,
2013-04-29 04:32:00,51.1,49.7,29.86,East,96,0.0,0.0,95,0.00,,,0.00,WeatherDisplay:10.37,2013-04-29 09:32:00,
2013-04-29 04:37:00,51.0,49.6,29.86,East,96,0.0,0.0,95,0.00,,,0.00,WeatherDisplay:10.37,2013-04-29 09:37:00,
2013-04-29 04:42:00,50.9,49.5,29.86,East,96,0.0,0.0,95,0.00,,,0.00,WeatherDisplay:10.37,2013-04-29 09:42:00,
2013-04-29 04:47:00,51.0,49.6,29.86,East,96,0.0,0.0,95,0.00,,,0.00,WeatherDisplay:10.37,2013-04-29 09:47:00,
2013-04-29 04:52:00,51.0,49.6,29.86,East,96,0.0,0.0,95,0.00,,,0.00,WeatherDisplay:10.37,2013-04-29 09:52:00,
2013-04-29 04:57:00,50.7,49.3,29.86,East,96,0.0,0.0,95,0.00,,,0.00,WeatherDisplay:10.37,2013-04-29 09:57:00,
2013-04-29 05:02:00,50.8,50.8,29.86,East,96,0.0,0.0,100,0.00,,,0.00,WeatherDisplay:10.37,2013-04-29 10:02:00,
2013-04-29 05:07:00,50.8,50.8,29.86,East,96,0.0,0.0,100,0.00,,,0.00,WeatherDisplay:10.37,2013-04-29 10:07:00,
2013-04-29 05:12:00,51.0,51.0,29.86,East,96,0.0,0.0,100,0.00,,,0.00,WeatherDisplay:10.37,2013-04-29 10:12:00,
2013-04-29 05:17:00,51.1,51.1,29.86,East,96,0.0,0.0,100,0.00,,,0.00,WeatherDisplay:10.37,2013-04-29 10:17:00,
2013-04-29 05:22:00,51.1,51.1,29.87,East,98,0.0,0.0,100,0.00,,,0.00,WeatherDisplay:10.37,2013-04-29 10:22:00,
2013-04-29 05:27:00,50.9,50.9,29.86,East,98,0.0,0.0,100,0.00,,,0.00,WeatherDisplay:10.37,2013-04-29 10:27:00,
2013-04-29 05:32:00,50.9,50.9,29.87,East,98,0.0,0.0,100,0.00,,,0.00,WeatherDisplay:10.37,2013-04-29 10:32:00,
2013-04-29 05:37:00,50.7,50.7,29.87,East,98,0.0,0.0,100,0.00,,,0.00,WeatherDisplay:10.37,2013-04-29 10:37:00,
2013-04-29 05:43:00,50.8,50.8,29.87,East,98,0.0,0.0,100,0.00,,,0.00,WeatherDisplay:10.37,2013-04-29 10:43:00,
2013-04-29 05:48:00,50.9,50.9,29.87,East,97,0.0,0.0,100,0.00,,,0.00,WeatherDisplay:10.37,2013-04-29 10:48:00,
2013-04-29 05:53:00,50.9,50.9,29.87,East,97,0.0,0.0,100,0.00,,,0.00,WeatherDisplay:10.37,2013-04-29 10:53:00,
2013-04-29 05:58:00,50.8,50.8,29.87,East,98,0.0,0.0,100,0.00,,,0.00,WeatherDisplay:10.37,2013-04-29 10:58:00,
2013-04-29 06:03:00,50.7,50.7,29.87,East,98,0.0,0.0,100,0.00,CLR,,0.00,WeatherDisplay:10.37,2013-04-29 11:03:00,
2013-04-29 06:08:00,50.6,50.6,29.87,East,97,0.0,0.0,100,0.00,CLR,,0.00,WeatherDisplay:10.37,2013-04-29 11:08:00,
2013-04-29 06:13:00,50.4,50.4,29.87,East,98,0.0,0.0,100,0.00,CLR,,0.00,WeatherDisplay:10.37,2013-04-29 11:13:00,
2013-04-29 06:18:00,50.4,50.4,29.88,East,98,0.0,0.0,100,0.00,CLR,,0.00,WeatherDisplay:10.37,2013-04-29 11:18:00,
2013-04-29 06:23:00,50.5,50.5,29.87,East,98,0.0,0.0,100,0.00,CLR,,0.00,WeatherDisplay:10.37,2013-04-29 11:23:00,
2013-04-29 06:28:00,50.6,50.6,29.88,East,98,0.0,0.0,100,0.00,CLR,,0.00,WeatherDisplay:10.37,2013-04-29 11:28:00,
2013-04-29 06:33:00,50.8,50.8,29.88,East,98,0.0,0.0,100,0.00,CLR,,0.00,WeatherDisplay:10.37,2013-04-29 11:33:00,
2013-04-29 06:38:00,50.9,50.9,29.88,East,101,0.0,0.0,100,0.00,CLR,,0.00,WeatherDisplay:10.37,2013-04-29 11:38:00,
2013-04-29 06:43:00,51.0,51.0,29.88,ESE,112,0.0,0.0,100,0.00,CLR,,0.00,WeatherDisplay:10.37,2013-04-29 11:43:00,
2013-04-29 06:48:00,51.1,51.1,29.88,ESE,118,0.0,0.0,100,0.00,CLR,,0.00,WeatherDisplay:10.37,2013-04-29 11:48:00,
2013-04-29 06:53:00,51.1,51.1,29.88,ESE,115,0.1,1.1,100,0.00,CLR,,0.00,WeatherDisplay:10.37,2013-04-29 11:53:00,
2013-04-29 06:58:00,51.3,51.3,29.88,ESE,120,0.0,0.0,100,0.00,CLR,,0.00,WeatherDisplay:10.37,2013-04-29 11:58:00,
2013-04-29 07:03:00,51.6,51.6,29.88,ESE,111,0.0,0.0,100,0.00,CLR,,0.00,WeatherDisplay:10.37,2013-04-29 12:03:00,
2013-04-29 07:08:00,52.0,52.0,29.88,ESE,110,0.0,0.0,100,0.00,CLR,,0.00,WeatherDisplay:10.37,2013-04-29 12:08:00,
2013-04-29 07:13:00,52.5,52.5,29.88,ESE,122,0.0,0.0,100,0.00,CLR,,0.00,WeatherDisplay:10.37,2013-04-29 12:13:00,
2013-04-29 07:18:00,53.0,53.0,29.89,ESE,122,0.0,0.0,100,0.00,CLR,,0.00,WeatherDisplay:10.37,2013-04-29 12:18:00,
2013-04-29 07:23:00,53.4,53.4,29.89,ESE,122,0.0,1.1,100,0.00,CLR,,0.00,WeatherDisplay:10.37,2013-04-29 12:23:00,
2013-04-29 07:28:00,53.8,52.4,29.89,SE,134,0.0,0.0,95,0.00,CLR,,0.00,WeatherDisplay:10.37,2013-04-29 12:28:00,
2013-04-29 07:33:00,54.0,52.3,29.89,ESE,107,0.0,0.0,94,0.00,CLR,,0.00,WeatherDisplay:10.37,2013-04-29 12:33:00,
2013-04-29 07:38:00,54.2,52.5,29.89,South,186,0.0,0.0,94,0.00,CLR,,0.00,WeatherDisplay:10.37,2013-04-29 12:38:00,
2013-04-29 07:43:00,54.6,52.9,29.89,ESE,117,0.2,0.0,94,0.00,CLR,,0.00,WeatherDisplay:10.37,2013-04-29 12:43:00,
2013-04-29 07:48:00,55.0,52.7,29.89,South,177,0.0,2.3,92,0.00,CLR,,0.00,WeatherDisplay:10.37,2013-04-29 12:48:00,
2013-04-29 07:53:00,55.5,53.2,29.89,SSE,165,0.0,0.0,92,0.00,CLR,,0.00,WeatherDisplay:10.37,2013-04-29 12:53:00,
2013-04-29 07:58:00,56.3,53.7,29.89,East,89,0.0,0.0,91,0.00,CLR,,0.00,WeatherDisplay:10.37,2013-04-29 12:58:00,
2013-04-29 08:03:00,56.8,53.9,29.89,East,83,0.2,1.0,90,0.00,CLR,,0.00,WeatherDisplay:10.37,2013-04-29 13:03:00,
2013-04-29 08:08:00,57.1,53.3,29.90,SSW,198,0.2,1.1,87,0.00,CLR,,0.00,WeatherDisplay:10.37,2013-04-29 13:08:00,
2013-04-29 08:13:00,57.3,53.1,29.90,SE,125,0.8,3.5,86,0.00,CLR,,0.00,WeatherDisplay:10.37,2013-04-29 13:13:00,
2013-04-29 08:18:00,57.6,53.4,29.89,East,89,0.0,1.1,86,0.00,CLR,,0.00,WeatherDisplay:10.37,2013-04-29 13:18:00,
2013-04-29 08:23:00,58.2,53.7,29.89,ESE,114,0.2,1.1,85,0.00,CLR,,0.00,WeatherDisplay:10.37,2013-04-29 13:23:00,
2013-04-29 08:28:00,58.7,53.9,29.90,East,100,1.2,2.3,84,0.00,CLR,,0.00,WeatherDisplay:10.37,2013-04-29 13:28:00,
2013-04-29 08:33:00,58.9,54.4,29.89,East,94,0.0,0.0,85,0.00,CLR,,0.00,WeatherDisplay:10.37,2013-04-29 13:33:00,
2013-04-29 08:38:00,59.3,54.5,29.89,South,187,0.7,1.1,84,0.00,CLR,,0.00,WeatherDisplay:10.37,2013-04-29 13:38:00,
2013-04-29 08:43:00,59.3,54.1,29.89,East,79,0.0,1.1,83,0.00,CLR,,0.00,WeatherDisplay:10.37,2013-04-29 13:43:00,
2013-04-29 08:48:00,59.3,53.8,29.89,SE,141,0.9,3.5,82,0.00,CLR,,0.00,WeatherDisplay:10.37,2013-04-29 13:48:00,
2013-04-29 08:53:00,59.6,54.1,29.89,SW,217,1.0,1.1,82,0.00,CLR,,0.00,WeatherDisplay:10.37,2013-04-29 13:53:00,
2013-04-29 08:58:00,60.0,54.8,29.89,SSE,162,2.1,3.5,83,0.00,CLR,,0.00,WeatherDisplay:10.37,2013-04-29 13:58:00,
2013-04-29 09:03:00,60.3,55.1,29.89,East,81,0.0,1.0,83,0.00,CLR,,0.00,WeatherDisplay:10.37,2013-04-29 14:03:00,
2013-04-29 09:08:00,61.3,55.1,29.89,ESE,110,1.5,2.3,80,0.00,CLR,,0.00,WeatherDisplay:10.37,2013-04-29 14:08:00,
2013-04-29 09:13:00,61.2,55.0,29.89,ESE,106,1.1,3.0,80,0.00,CLR,,0.00,WeatherDisplay:10.37,2013-04-29 14:13:00,
2013-04-29 09:18:00,61.5,54.9,29.89,SSE,151,2.6,4.0,79,0.00,CLR,,0.00,WeatherDisplay:10.37,2013-04-29 14:18:00,
2013-04-29 09:23:00,61.7,55.1,29.89,SSE,167,0.0,3.5,79,0.00,CLR,,0.00,WeatherDisplay:10.37,2013-04-29 14:23:00,
2013-04-29 09:28:00,62.1,54.8,29.88,SE,143,3.8,5.8,77,0.00,CLR,,0.00,WeatherDisplay:10.37,2013-04-29 14:28:00,
2013-04-29 09:33:00,62.5,55.9,29.88,SE,131,0.3,3.5,79,0.00,CLR,,0.00,WeatherDisplay:10.37,2013-04-29 14:33:00,
2013-04-29 09:38:00,63.0,55.3,29.88,ENE,58,1.0,3.5,76,0.00,CLR,,0.00,WeatherDisplay:10.37,2013-04-29 14:38:00,
2013-04-29 09:43:00,63.4,55.0,29.88,SE,125,2.7,3.5,74,0.00,CLR,,0.00,WeatherDisplay:10.37,2013-04-29 14:43:00,
2013-04-29 09:48:00,63.9,55.4,29.88,ESE,121,0.6,1.1,74,0.00,CLR,,0.00,WeatherDisplay:10.37,2013-04-29 14:48:00,
2013-04-29 09:53:00,65.1,56.2,29.88,SSE,161,2.1,3.5,73,0.00,CLR,,0.00,WeatherDisplay:10.37,2013-04-29 14:53:00,
2013-04-29 09:58:00,65.9,57.0,29.88,SSE,163,0.6,1.1,73,0.00,CLR,,0.00,WeatherDisplay:10.37,2013-04-29 14:58:00,
2013-04-29 10:03:00,66.7,56.6,29.88,SE,125,3.1,3.5,70,0.00,CLR,,0.00,WeatherDisplay:10.37,2013-04-29 15:03:00,
2013-04-29 10:08:00,67.2,56.7,29.88,SSE,162,2.4,4.6,69,0.00,CLR,,0.00,WeatherDisplay:10.37,2013-04-29 15:08:00,
2013-04-29 10:13:00,67.2,56.3,29.88,SW,225,0.6,3.5,68,0.00,CLR,,0.00,WeatherDisplay:10.37,2013-04-29 15:13:00,
2013-04-29 10:18:00,67.7,57.6,29.88,SE,138,0.7,0.0,70,0.00,CLR,,0.00,WeatherDisplay:10.37,2013-04-29 15:18:00,
2013-04-29 10:23:00,68.5,57.5,29.87,WSW,243,1.5,3.5,68,0.00,CLR,,0.00,WeatherDisplay:10.37,2013-04-29 15:23:00,
2013-04-29 10:28:00,68.8,57.0,29.87,SE,125,2.6,5.8,66,0.00,CLR,,0.00,WeatherDisplay:10.37,2013-04-29 15:28:00,
2013-04-29 10:33:00,69.2,57.4,29.87,SSE,148,3.5,4.6,66,0.00,CLR,,0.00,WeatherDisplay:10.37,2013-04-29 15:33:00,
2013-04-29 10:38:00,69.8,58.3,29.87,SSE,159,1.1,2.3,67,0.00,CLR,,0.00,WeatherDisplay:10.37,2013-04-29 15:38:00,
2013-04-29 10:43:00,70.6,58.3,29.87,SW,228,2.6,8.1,65,0.00,CLR,,0.00,WeatherDisplay:10.37,2013-04-29 15:43:00,
2013-04-29 10:48:00,71.2,58.8,29.86,SSE,153,2.4,5.8,65,0.00,CLR,,0.00,WeatherDisplay:10.37,2013-04-29 15:48:00,
2013-04-29 10:53:00,71.8,59.0,29.86,SSW,197,1.8,3.5,64,0.00,CLR,,0.00,WeatherDisplay:10.37,2013-04-29 15:53:00,
2013-04-29 10:58:00,72.5,59.2,29.86,SSE,165,2.6,6.9,63,0.00,CLR,,0.00,WeatherDisplay:10.37,2013-04-29 15:58:00,
2013-04-29 11:04:00,72.7,59.4,29.86,SSE,162,2.1,5.8,63,0.00,CLR,,0.00,WeatherDisplay:10.37,2013-04-29 16:04:00,
2013-04-29 11:09:00,73.5,59.7,29.86,ENE,66,3.4,6.9,62,0.00,CLR,,0.00,WeatherDisplay:10.37,2013-04-29 16:09:00,
2013-04-29 11:14:00,73.7,59.9,29.86,SW,224,0.8,4.6,62,0.00,CLR,,0.00,WeatherDisplay:10.37,2013-04-29 16:14:00,
2013-04-29 11:19:00,74.5,60.2,29.85,SW,224,3.2,6.9,61,0.00,CLR,,0.00,WeatherDisplay:10.37,2013-04-29 16:19:00,
2013-04-29 11:24:00,75.1,61.2,29.85,South,183,1.4,3.5,62,0.00,CLR,,0.00,WeatherDisplay:10.37,2013-04-29 16:24:00,
2013-04-29 11:29:00,76.4,60.5,29.85,SW,215,4.5,6.9,58,0.00,CLR,,0.00,WeatherDisplay:10.37,2013-04-29 16:29:00,
2013-04-29 11:34:00,76.4,60.5,29.85,West,260,5.3,6.9,58,0.00,CLR,,0.00,WeatherDisplay:10.37,2013-04-29 16:34:00,
2013-04-29 11:39:00,76.9,61.5,29.85,WSW,255,4.8,10.4,59,0.00,CLR,,0.00,WeatherDisplay:10.37,2013-04-29 16:39:00,
2013-04-29 11:44:00,77.5,61.1,29.85,SSW,192,2.7,5.8,57,0.00,CLR,,0.00,WeatherDisplay:10.37,2013-04-29 16:44:00,
2013-04-29 11:49:00,77.8,60.8,29.85,SSE,153,6.3,11.5,56,0.00,CLR,,0.00,WeatherDisplay:10.37,2013-04-29 16:49:00,
2013-04-29 11:54:00,78.1,60.6,29.84,SSE,162,5.3,6.9,55,0.00,CLR,,0.00,WeatherDisplay:10.37,2013-04-29 16:54:00,
2013-04-29 11:59:00,78.3,60.8,29.84,SSE,149,5.7,8.1,55,0.00,CLR,,0.00,WeatherDisplay:10.37,2013-04-29 16:59:00,
2013-04-29 12:04:00,78.7,60.7,29.84,SW,233,4.8,8.1,54,0.00,CLR,,0.00,WeatherDisplay:10.37,2013-04-29 17:04:00,
2013-04-29 12:09:00,79.0,60.9,29.83,SE,128,3.7,8.1,54,0.00,,,0.00,WeatherDisplay:10.37,2013-04-29 17:09:00,
2013-04-29 12:14:00,79.4,60.8,29.83,WSW,239,4.1,5.8,53,0.00,,,0.00,WeatherDisplay:10.37,2013-04-29 17:14:00,
2013-04-29 12:19:00,80.4,61.2,29.83,West,266,8.3,12.7,52,0.00,,,0.00,WeatherDisplay:10.37,2013-04-29 17:19:00,
2013-04-29 12:24:00,80.3,60.5,29.83,WSW,252,5.6,6.9,51,0.00,,,0.00,WeatherDisplay:10.37,2013-04-29 17:24:00,
2013-04-29 12:29:00,80.4,60.6,29.83,SSW,198,7.0,11.5,51,0.00,,,0.00,WeatherDisplay:10.37,2013-04-29 17:29:00,
2013-04-29 12:34:00,80.2,61.0,29.82,SW,217,4.9,6.9,52,0.00,,,0.00,WeatherDisplay:10.37,2013-04-29 17:34:00,
2013-04-29 12:39:00,81.2,61.4,29.82,SW,236,3.3,5.8,51,0.00,,,0.00,WeatherDisplay:10.37,2013-04-29 17:39:00,
2013-04-29 12:44:00,81.2,61.4,29.82,WSW,256,3.5,5.8,51,0.00,,,0.00,WeatherDisplay:10.37,2013-04-29 17:44:00,
2013-04-29 12:49:00,81.6,61.2,29.81,SE,139,8.5,17.3,50,0.00,,,0.00,WeatherDisplay:10.37,2013-04-29 17:49:00,
2013-04-29 12:54:00,81.9,60.3,29.81,ESE,118,9.2,11.5,48,0.00,,,0.00,WeatherDisplay:10.37,2013-04-29 17:54:00,
2013-04-29 12:59:00,81.7,60.7,29.81,SSE,149,6.6,10.4,49,0.00,,,0.00,WeatherDisplay:10.37,2013-04-29 17:59:00,
2013-04-29 13:04:00,82.2,60.0,29.81,SW,225,6.9,9.2,47,0.00,,,0.00,WeatherDisplay:10.37,2013-04-29 18:04:00,
2013-04-29 13:09:00,82.8,60.5,29.80,ENE,74,5.3,11.5,47,0.00,,,0.00,WeatherDisplay:10.37,2013-04-29 18:09:00,
2013-04-29 13:14:00,82.9,60.0,29.80,SSW,210,5.6,8.1,46,0.00,,,0.00,WeatherDisplay:10.37,2013-04-29 18:14:00,
2013-04-29 13:19:00,83.0,60.7,29.80,WSW,253,4.2,6.9,47,0.00,,,0.00,WeatherDisplay:10.37,2013-04-29 18:19:00,
2013-04-29 13:24:00,82.5,59.6,29.80,South,177,4.5,5.8,46,0.00,,,0.00,WeatherDisplay:10.37,2013-04-29 18:24:00,
2013-04-29 13:29:00,82.7,59.2,29.79,SSW,205,6.8,13.8,45,0.00,,,0.00,WeatherDisplay:10.37,2013-04-29 18:29:00,
2013-04-29 13:34:00,82.9,60.0,29.79,South,189,5.8,10.4,46,0.00,,,0.00,WeatherDisplay:10.37,2013-04-29 18:34:00,
2013-04-29 13:39:00,84.0,59.7,29.79,SW,222,1.4,5.8,44,0.00,,,0.00,WeatherDisplay:10.37,2013-04-29 18:39:00,
2013-04-29 13:44:00,83.8,60.2,29.78,WSW,250,1.7,6.0,45,0.00,,,0.00,WeatherDisplay:10.37,2013-04-29 18:44:00,
2013-04-29 13:49:00,83.6,60.0,29.78,SSE,157,5.1,15.0,45,0.00,,,0.00,WeatherDisplay:10.37,2013-04-29 18:49:00,
2013-04-29 13:54:00,83.9,58.3,29.78,South,175,8.2,12.7,42,0.00,,,0.00,WeatherDisplay:10.37,2013-04-29 18:54:00,
2013-04-29 13:59:00,84.5,57.5,29.78,SW,231,9.8,12.7,40,0.00,,,0.00,WeatherDisplay:10.37,2013-04-29 18:59:00,
2013-04-29 14:04:00,84.5,57.5,29.78,South,179,8.9,12.7,40,0.00,,,0.00,WeatherDisplay:10.37,2013-04-29 19:04:00,
2013-04-29 14:09:00,84.2,57.9,29.78,SSW,197,5.0,11.5,41,0.00,,,0.00,WeatherDisplay:10.37,2013-04-29 19:09:00,
2013-04-29 14:14:00,84.0,59.7,29.78,SE,133,1.7,3.0,44,0.00,,,0.00,WeatherDisplay:10.37,2013-04-29 19:14:00,
2013-04-29 14:19:00,84.3,58.0,29.77,ENE,68,3.0,5.8,41,0.00,,,0.00,WeatherDisplay:10.37,2013-04-29 19:19:00,
2013-04-29 14:24:00,84.0,57.8,29.77,SSE,153,6.4,8.1,41,0.00,,,0.00,WeatherDisplay:10.37,2013-04-29 19:24:00,
2013-04-29 14:29:00,84.2,58.6,29.77,SSW,192,4.9,8.1,42,0.00,,,0.00,WeatherDisplay:10.37,2013-04-29 19:29:00,
2013-04-29 14:34:00,84.7,59.1,29.77,SW,235,2.4,3.5,42,0.00,,,0.00,WeatherDisplay:10.37,2013-04-29 19:34:00,
2013-04-29 14:39:00,84.8,57.8,29.77,WSW,257,4.7,7.0,40,0.00,,,0.00,WeatherDisplay:10.37,2013-04-29 19:39:00,
2013-04-29 14:44:00,84.7,58.4,29.77,East,94,5.6,10.4,41,0.00,,,0.00,WeatherDisplay:10.37,2013-04-29 19:44:00,
2013-04-29 14:49:00,85.2,58.2,29.76,WSW,250,5.3,9.2,40,0.00,,,0.00,WeatherDisplay:10.37,2013-04-29 19:49:00,
2013-04-29 14:54:00,85.0,57.3,29.76,South,191,11.7,16.1,39,0.00,,,0.00,WeatherDisplay:10.37,2013-04-29 19:54:00,
2013-04-29 14:59:00,84.8,57.1,29.76,WSW,257,4.7,9.2,39,0.00,,,0.00,WeatherDisplay:10.37,2013-04-29 19:59:00,
2013-04-29 15:04:00,85.4,57.6,29.76,SW,215,5.7,11.5,39,0.00,,,0.00,WeatherDisplay:10.37,2013-04-29 20:04:00,
2013-04-29 15:09:00,85.1,55.9,29.76,SSE,165,2.8,10.4,37,0.00,,,0.00,WeatherDisplay:10.37,2013-04-29 20:09:00,
2013-04-29 15:14:00,85.2,55.2,29.75,WSW,242,10.8,12.0,36,0.00,,,0.00,WeatherDisplay:10.37,2013-04-29 20:14:00,
2013-04-29 15:19:00,84.4,55.3,29.75,SSW,210,9.0,13.8,37,0.00,,,0.00,WeatherDisplay:10.37,2013-04-29 20:19:00,
2013-04-29 15:24:00,85.7,57.2,29.75,SE,145,3.2,5.8,38,0.00,,,0.00,WeatherDisplay:10.37,2013-04-29 20:24:00,
2013-04-29 15:29:00,86.5,55.6,29.75,WSW,245,6.1,10.4,35,0.00,,,0.00,WeatherDisplay:10.37,2013-04-29 20:29:00,
2013-04-29 15:34:00,85.4,54.6,29.75,SW,221,8.9,11.0,35,0.00,,,0.00,WeatherDisplay:10.37,2013-04-29 20:34:00,
2013-04-29 15:39:00,84.9,54.2,29.74,SW,231,5.8,12.7,35,0.00,,,0.00,WeatherDisplay:10.37,2013-04-29 20:39:00,
2013-04-29 15:44:00,85.5,54.7,29.74,West,269,3.0,8.1,35,0.00,,,0.00,WeatherDisplay:10.37,2013-04-29 20:44:00,
2013-04-29 15:49:00,86.4,54.7,29.74,WSW,240,4.1,5.8,34,0.00,,,0.00,WeatherDisplay:10.37,2013-04-29 20:49:00,
2013-04-29 15:54:00,85.8,53.4,29.74,SE,138,9.5,13.8,33,0.00,,,0.00,WeatherDisplay:10.37,2013-04-29 20:54:00,
2013-04-29 15:59:00,85.8,52.5,29.74,WSW,248,5.5,5.8,32,0.00,,,0.00,WeatherDisplay:10.37,2013-04-29 20:59:00,
2013-04-29 16:04:00,86.0,54.4,29.73,SW,215,6.6,11.5,34,0.00,,,0.00,WeatherDisplay:10.37,2013-04-29 21:04:00,
2013-04-29 16:09:00,86.5,54.0,29.74,SSE,150,4.6,6.9,33,0.00,,,0.00,WeatherDisplay:10.37,2013-04-29 21:09:00,
2013-04-29 16:14:00,86.6,54.1,29.73,South,177,1.9,8.1,33,0.00,,,0.00,WeatherDisplay:10.37,2013-04-29 21:14:00,
2013-04-29 16:19:00,86.2,52.9,29.74,SW,226,5.2,9.2,32,0.00,,,0.00,WeatherDisplay:10.37,2013-04-29 21:19:00,
2013-04-29 16:24:00,85.8,53.4,29.73,South,179,7.5,17.3,33,0.00,,,0.00,WeatherDisplay:10.37,2013-04-29 21:24:00,
2013-04-29 16:29:00,86.2,52.9,29.73,SSW,210,5.0,11.5,32,0.00,,,0.00,WeatherDisplay:10.37,2013-04-29 21:29:00,
2013-04-29 16:34:00,86.3,53.8,29.73,SE,138,6.2,10.4,33,0.00,,,0.00,WeatherDisplay:10.37,2013-04-29 21:34:00,
2013-04-29 16:39:00,86.4,53.9,29.73,SSE,160,2.9,8.1,33,0.00,,,0.00,WeatherDisplay:10.37,2013-04-29 21:39:00,
2013-04-29 16:44:00,85.9,52.6,29.73,SSW,201,8.3,13.8,32,0.00,,,0.00,WeatherDisplay:10.37,2013-04-29 21:44:00,
2013-04-29 16:49:00,85.7,51.6,29.72,SW,228,5.8,13.8,31,0.00,,,0.00,WeatherDisplay:10.37,2013-04-29 21:49:00,
2013-04-29 16:54:00,85.8,53.4,29.72,SW,225,4.1,11.0,33,0.00,,,0.00,WeatherDisplay:10.37,2013-04-29 21:54:00,
2013-04-29 16:59:00,85.9,51.8,29.72,South,184,6.1,9.0,31,0.00,,,0.00,WeatherDisplay:10.37,2013-04-29 21:59:00,
2013-04-29 17:05:00,85.5,52.3,29.72,West,263,6.4,16.1,32,0.00,,,0.00,WeatherDisplay:10.37,2013-04-29 22:05:00,
2013-04-29 17:10:00,85.9,52.6,29.72,SW,224,4.9,6.0,32,0.00,,,0.00,WeatherDisplay:10.37,2013-04-29 22:10:00,
2013-04-29 17:15:00,85.6,51.5,29.72,SSW,213,4.2,12.7,31,0.00,,,0.00,WeatherDisplay:10.37,2013-04-29 22:15:00,
2013-04-29 17:20:00,85.6,51.5,29.72,West,263,7.3,13.8,31,0.00,,,0.00,WeatherDisplay:10.37,2013-04-29 22:20:00,
2013-04-29 17:25:00,85.6,52.4,29.73,SW,229,6.0,10.4,32,0.00,,,0.00,WeatherDisplay:10.37,2013-04-29 22:25:00,
2013-04-29 17:30:00,85.6,51.5,29.72,SSW,205,6.6,9.2,31,0.00,,,0.00,WeatherDisplay:10.37,2013-04-29 22:30:00,
2013-04-29 17:35:00,85.6,52.4,29.72,SE,136,3.6,5.8,32,0.00,,,0.00,WeatherDisplay:10.37,2013-04-29 22:35:00,
2013-04-29 17:40:00,85.6,51.5,29.72,SW,218,6.7,11.5,31,0.00,,,0.00,WeatherDisplay:10.37,2013-04-29 22:40:00,
2013-04-29 17:45:00,85.6,51.5,29.72,WSW,246,8.0,15.0,31,0.00,,,0.00,WeatherDisplay:10.37,2013-04-29 22:45:00,
2013-04-29 17:50:00,85.0,51.8,29.72,SSW,203,5.4,8.1,32,0.00,,,0.00,WeatherDisplay:10.37,2013-04-29 22:50:00,
2013-04-29 17:55:00,85.0,51.8,29.72,SSW,199,6.5,10.4,32,0.00,,,0.00,WeatherDisplay:10.37,2013-04-29 22:55:00,
2013-04-29 18:00:00,85.3,52.9,29.72,WSW,255,2.7,4.6,33,0.00,,,0.00,WeatherDisplay:10.37,2013-04-29 23:00:00,
2013-04-29 18:05:00,85.3,52.9,29.72,SW,226,4.6,6.9,33,0.00,,,0.00,WeatherDisplay:10.37,2013-04-29 23:05:00,
2013-04-29 18:10:00,85.2,52.8,29.72,SSE,153,3.7,5.8,33,0.00,,,0.00,WeatherDisplay:10.37,2013-04-29 23:10:00,
2013-04-29 18:15:00,85.4,53.8,29.72,SSW,203,1.5,3.5,34,0.00,,,0.00,WeatherDisplay:10.37,2013-04-29 23:15:00,
2013-04-29 18:20:00,85.4,53.8,29.72,SW,225,3.2,5.0,34,0.00,,,0.00,WeatherDisplay:10.37,2013-04-29 23:20:00,
2013-04-29 18:25:00,85.3,53.8,29.72,West,276,3.3,6.9,34,0.00,,,0.00,WeatherDisplay:10.37,2013-04-29 23:25:00,
2013-04-29 18:30:00,84.5,52.2,29.72,SW,214,8.1,11.5,33,0.00,,,0.00,WeatherDisplay:10.37,2013-04-29 23:30:00,
2013-04-29 18:35:00,84.3,53.7,29.72,SW,219,4.0,8.1,35,0.00,,,0.00,WeatherDisplay:10.37,2013-04-29 23:35:00,
2013-04-29 18:40:00,84.0,53.4,29.72,WSW,257,4.4,6.9,35,0.00,,,0.00,WeatherDisplay:10.37,2013-04-29 23:40:00,
2013-04-29 18:45:00,83.7,52.3,29.72,WSW,242,6.4,10.4,34,0.00,,,0.00,WeatherDisplay:10.37,2013-04-29 23:45:00,
2013-04-29 18:50:00,83.5,52.2,29.72,SSE,165,4.3,9.0,34,0.00,,,0.00,WeatherDisplay:10.37,2013-04-29 23:50:00,
2013-04-29 18:55:00,83.3,52.0,29.72,SW,215,3.3,4.0,34,0.00,,,0.00,WeatherDisplay:10.37,2013-04-29 23:55:00,
2013-04-29 19:00:00,83.2,51.9,29.72,SW,236,6.6,10.4,34,0.00,,,0.00,WeatherDisplay:10.37,2013-04-30 00:00:00,
2013-04-29 19:05:00,82.8,51.6,29.72,West,259,5.7,6.9,34,0.00,,,0.00,WeatherDisplay:10.37,2013-04-30 00:05:00,
2013-04-29 19:10:00,82.3,51.9,29.72,SSW,195,3.5,5.8,35,0.00,,,0.00,WeatherDisplay:10.37,2013-04-30 00:10:00,
2013-04-29 19:15:00,81.9,52.3,29.72,SW,228,1.5,4.6,36,0.00,,,0.00,WeatherDisplay:10.37,2013-04-30 00:15:00,
2013-04-29 19:20:00,81.6,52.1,29.72,SW,231,4.3,6.9,36,0.00,,,0.00,WeatherDisplay:10.37,2013-04-30 00:20:00,
2013-04-29 19:25:00,81.3,52.5,29.72,SW,223,1.9,3.5,37,0.00,,,0.00,WeatherDisplay:10.37,2013-04-30 00:25:00,
2013-04-29 19:30:00,80.9,52.2,29.72,South,179,1.7,3.5,37,0.00,,,0.00,WeatherDisplay:10.37,2013-04-30 00:30:00,
2013-04-29 19:35:00,80.6,52.6,29.72,SSW,212,5.3,7.0,38,0.00,,,0.00,WeatherDisplay:10.37,2013-04-30 00:35:00,
2013-04-29 19:40:00,80.3,53.1,29.72,SW,232,4.2,5.8,39,0.00,,,0.00,WeatherDisplay:10.37,2013-04-30 00:40:00,
2013-04-29 19:45:00,79.9,53.4,29.73,SW,214,1.3,3.5,40,0.00,,,0.00,WeatherDisplay:10.37,2013-04-30 00:45:00,
2013-04-29 19:50:00,79.5,53.1,29.72,SE,142,1.2,2.3,40,0.00,,,0.00,WeatherDisplay:10.37,2013-04-30 00:50:00,
2013-04-29 19:55:00,79.1,53.4,29.73,SSW,196,0.9,1.1,41,0.00,,,0.00,WeatherDisplay:10.37,2013-04-30 00:55:00,
2013-04-29 20:00:00,78.7,53.0,29.73,SSW,194,0.6,2.3,41,0.00,,,0.00,WeatherDisplay:10.37,2013-04-30 01:00:00,
2013-04-29 20:05:00,78.3,53.3,29.73,SSW,204,1.3,3.5,42,0.00,,,0.00,WeatherDisplay:10.37,2013-04-30 01:05:00,
2013-04-29 20:10:00,78.0,53.7,29.73,SSE,157,0.9,2.3,43,0.00,,,0.00,WeatherDisplay:10.37,2013-04-30 01:10:00,
2013-04-29 20:15:00,77.6,53.3,29.73,SSE,153,1.0,2.3,43,0.00,,,0.00,WeatherDisplay:10.37,2013-04-30 01:15:00,
2013-04-29 20:20:00,77.3,53.7,29.73,SSE,166,2.1,3.5,44,0.00,,,0.00,WeatherDisplay:10.37,2013-04-30 01:20:00,
2013-04-29 20:25:00,77.1,54.1,29.73,South,173,0.9,2.3,45,0.00,,,0.00,WeatherDisplay:10.37,2013-04-30 01:25:00,
2013-04-29 20:30:00,76.8,53.8,29.73,South,184,1.1,2.3,45,0.00,,,0.00,WeatherDisplay:10.37,2013-04-30 01:30:00,
2013-04-29 20:35:00,76.6,54.3,29.73,SSE,163,1.4,3.0,46,0.00,,,0.00,WeatherDisplay:10.37,2013-04-30 01:35:00,
2013-04-29 20:40:00,76.4,54.1,29.73,SSE,150,1.9,3.5,46,0.00,,,0.00,WeatherDisplay:10.37,2013-04-30 01:40:00,
2013-04-29 20:45:00,76.3,54.0,29.74,SSE,162,2.4,3.5,46,0.00,,,0.00,WeatherDisplay:10.37,2013-04-30 01:45:00,
2013-04-29 20:50:00,76.3,54.6,29.74,South,177,2.2,3.5,47,0.00,,,0.00,WeatherDisplay:10.37,2013-04-30 01:50:00,
2013-04-29 20:55:00,76.3,54.6,29.74,South,169,1.7,3.5,47,0.00,,,0.00,WeatherDisplay:10.37,2013-04-30 01:55:00,
2013-04-29 21:00:00,76.1,54.4,29.74,SSE,154,1.8,2.3,47,0.00,,,0.00,WeatherDisplay:10.37,2013-04-30 02:00:00,
2013-04-29 21:05:00,76.0,54.9,29.74,SE,145,2.4,3.5,48,0.00,,,0.00,WeatherDisplay:10.37,2013-04-30 02:05:00,
2013-04-29 21:10:00,75.9,55.4,29.74,SSW,207,2.0,3.5,49,0.00,,,0.00,WeatherDisplay:10.37,2013-04-30 02:10:00,
2013-04-29 21:15:00,75.7,55.2,29.75,South,178,0.8,1.1,49,0.00,,,0.00,WeatherDisplay:10.37,2013-04-30 02:15:00,
2013-04-29 21:20:00,75.4,55.5,29.75,SSE,152,1.8,2.3,50,0.00,,,0.00,WeatherDisplay:10.37,2013-04-30 02:20:00,
2013-04-29 21:25:00,75.1,55.7,29.75,SSE,162,0.6,2.3,51,0.00,,,0.00,WeatherDisplay:10.37,2013-04-30 02:25:00,
2013-04-29 21:30:00,74.9,55.6,29.75,SSE,149,1.2,2.0,51,0.00,,,0.00,WeatherDisplay:10.37,2013-04-30 02:30:00,
2013-04-29 21:35:00,74.5,55.7,29.76,SE,140,0.2,1.1,52,0.00,,,0.00,WeatherDisplay:10.37,2013-04-30 02:35:00,
2013-04-29 21:40:00,74.1,55.9,29.76,SE,143,0.0,2.3,53,0.00,,,0.00,WeatherDisplay:10.37,2013-04-30 02:40:00,
2013-04-29 21:45:00,73.6,55.9,29.76,ESE,115,0.0,0.0,54,0.00,,,0.00,WeatherDisplay:10.37,2013-04-30 02:45:00,
2013-04-29 21:50:00,73.0,55.4,29.76,SSE,159,0.0,0.0,54,0.00,,,0.00,WeatherDisplay:10.37,2013-04-30 02:50:00,
2013-04-29 21:55:00,72.4,55.3,29.76,SSE,159,0.0,0.0,55,0.00,,,0.00,WeatherDisplay:10.37,2013-04-30 02:55:00,
2013-04-29 22:00:00,72.0,55.4,29.76,ESE,111,0.0,0.0,56,0.00,,,0.00,WeatherDisplay:10.37,2013-04-30 03:00:00,
2013-04-29 22:05:00,71.8,55.7,29.76,SE,144,0.0,0.0,57,0.00,,,0.00,WeatherDisplay:10.37,2013-04-30 03:05:00,
2013-04-29 22:10:00,71.6,56.0,29.77,SSE,149,0.0,2.3,58,0.00,,,0.00,WeatherDisplay:10.37,2013-04-30 03:10:00,
2013-04-29 22:15:00,71.2,56.1,29.77,East,91,0.1,0.0,59,0.00,,,0.00,WeatherDisplay:10.37,2013-04-30 03:15:00,
2013-04-29 22:21:00,70.9,55.9,29.77,ESE,120,0.1,1.1,59,0.00,,,0.00,WeatherDisplay:10.37,2013-04-30 03:21:00,
2013-04-29 22:26:00,70.6,56.0,29.77,SE,124,0.1,1.1,60,0.00,,,0.00,WeatherDisplay:10.37,2013-04-30 03:26:00,
2013-04-29 22:31:00,70.4,56.3,29.77,SSE,148,0.5,2.3,61,0.00,,,0.00,WeatherDisplay:10.37,2013-04-30 03:31:00,
2013-04-29 22:36:00,70.3,56.2,29.77,SE,129,0.3,2.3,61,0.00,,,0.00,WeatherDisplay:10.37,2013-04-30 03:36:00,
2013-04-29 22:41:00,70.1,56.5,29.77,ESE,123,0.1,1.1,62,0.00,,,0.00,WeatherDisplay:10.37,2013-04-30 03:41:00,
2013-04-29 22:46:00,69.9,56.7,29.77,SE,126,0.3,2.3,63,0.00,,,0.00,WeatherDisplay:10.37,2013-04-30 03:46:00,
2013-04-29 22:51:00,69.6,56.4,29.77,ESE,122,0.0,0.0,63,0.00,,,0.00,WeatherDisplay:10.37,2013-04-30 03:51:00,
2013-04-29 22:56:00,69.4,56.7,29.77,SE,125,0.0,0.0,64,0.00,,,0.00,WeatherDisplay:10.37,2013-04-30 03:56:00,
2013-04-29 23:01:00,69.1,56.8,29.77,SE,145,0.0,0.0,65,0.00,,,0.00,WeatherDisplay:10.37,2013-04-30 04:01:00,
2013-04-29 23:06:00,68.7,56.9,29.77,SE,139,0.0,0.0,66,0.00,,,0.00,WeatherDisplay:10.37,2013-04-30 04:06:00,
2013-04-29 23:11:00,68.3,56.9,29.76,South,187,0.0,0.0,67,0.00,,,0.00,WeatherDisplay:10.37,2013-04-30 04:11:00,
2013-04-29 23:16:00,68.1,56.7,29.76,SSE,149,0.0,0.0,67,0.00,,,0.00,WeatherDisplay:10.37,2013-04-30 04:16:00,
2013-04-29 23:21:00,68.0,57.0,29.76,ESE,113,0.0,0.0,68,0.00,,,0.00,WeatherDisplay:10.37,2013-04-30 04:21:00,
2013-04-29 23:26:00,67.8,56.9,29.76,East,80,0.0,0.0,68,0.00,,,0.00,WeatherDisplay:10.37,2013-04-30 04:26:00,
2013-04-29 23:31:00,67.7,57.2,29.76,ESE,115,0.0,0.0,69,0.00,,,0.00,WeatherDisplay:10.37,2013-04-30 04:31:00,
2013-04-29 23:36:00,67.6,57.1,29.76,ESE,108,0.1,1.1,69,0.00,,,0.00,WeatherDisplay:10.37,2013-04-30 04:36:00,
2013-04-29 23:41:00,67.5,57.4,29.76,ESE,121,0.2,0.0,70,0.00,,,0.00,WeatherDisplay:10.37,2013-04-30 04:41:00,
2013-04-29 23:46:00,67.4,57.3,29.76,ESE,103,1.3,2.0,70,0.00,,,0.00,WeatherDisplay:10.37,2013-04-30 04:46:00,
2013-04-29 23:51:00,67.4,57.3,29.76,ESE,115,0.2,1.1,70,0.00,,,0.00,WeatherDisplay:10.37,2013-04-30 04:51:00,
2013-04-29 23:56:00,67.2,57.5,29.76,SE,132,0.0,2.3,71,0.00,,,0.00,WeatherDisplay:10.37,2013-04-30 04:56:00,